Wind_Speed
10 10 10 11 11 11 12 13 13 14 14 16 17 18 19 19 20 20 20 20 20 20 21 20 21 21 22 23 23 24 24 25 25 26 27 27 27 28 29 29 29 30 31
10 10 11 11 12 12 13 13 14 14 15 16 17 18 18 19 19 20 21 22 22 21 21 22 22 22 23 24 25 26 27 27 27 27 28 29 29 30 31 32 32 33 34
11 11 12 11 12 13 13 14 15 15 15 16 17 17 18 19 19 20 21 21 22 22 22 23 23 24 24 25 26 27 28 29 29 29 29 30 31 32 33 34 34 35 35
12 12 12 13 13 13 14 14 15 15 15 16 17 18 19 19 19 19 20 20 20 22 23 24 25 25 26 26 27 27 28 29 30 31 31 32 32 34 35 36 36 36 37
14 13 14 14 14 14 14 14 15 16 16 16 16 16 17 17 18 19 19 19 21 22 23 24 26 27 28 28 29 29 29 31 31 33 34 34 35 36 36 37 37 37 39
16 16 15 15 14 14 14 15 16 17 17 18 18 18 18 18 19 20 21 22 22 23 24 25 26 28 28 29 30 30 31 32 33 34 35 36 37 37 38 38 39 40 41
18 17 16 16 16 15 16 16 16 18 18 18 18 18 18 19 20 20 21 23 24 24 25 27 28 28 29 29 30 30 31 32 33 34 36 36 37 38 39 40 41 43 44
19 19 18 17 17 17 18 18 18 19 18 18 18 18 18 19 20 21 22 23 25 26 27 28 29 29 30 31 32 32 32 32 33 35 36 37 38 39 40 42 44 45 47
21 20 19 19 19 19 20 19 19 19 19 19 20 20 21 21 22 23 24 25 26 26 27 28 29 29 30 30 31 31 32 33 35 36 38 39 40 41 42 44 45 46 47
22 22 21 22 22 21 21 21 20 20 20 21 21 22 23 24 24 24 25 26 26 27 28 28 30 31 31 31 31 32 33 34 36 37 39 40 41 42 43 45 47 48 49
24 24 24 24 24 23 23 22 22 22 22 22 23 24 24 25 25 26 26 27 28 28 28 28 30 31 32 32 33 33 35 36 37 39 40 41 41 43 44 45 46 48 49
25 24 24 24 24 24 25 24 24 24 24 24 24 24 24 25 25 25 26 26 27 28 29 30 30 31 32 33 35 36 38 38 39 40 41 43 43 44 45 46 47 48 49
26 25 25 25 25 25 25 25 25 25 25 26 26 26 26 25 25 26 27 27 28 29 30 31 31 32 33 34 35 36 37 38 39 40 41 42 43 44 45 46 47 48 49
25 25 26 26 26 26 25 25 25 25 26 26 26 27 26 26 26 27 27 28 29 30 30 31 31 32 33 34 34 35 37 38 39 40 40 41 42 43 43 44 45 46 47
26 26 26 26 26 26 25 25 25 25 26 26 25 25 26 25 25 26 26 28 28 29 30 31 31 31 31 32 34 35 36 37 37 38 39 40 40 41 42 43 43 43 44
26 25 25 25 25 25 24 24 24 25 25 24 24 25 24 24 24 26 27 28 28 29 29 29 30 30 31 32 33 34 34 35 35 36 37 38 38 39 39 39 40 41 42
26 25 24 24 24 24 23 24 24 24 24 24 24 24 25 25 25 26 27 27 28 29 29 29 30 30 30 31 32 32 32 33 34 34 35 35 36 36 37 38 39 39 40
24 24 23 23 23 23 23 24 24 24 24 24 23 23 23 23 23 24 25 27 27 28 28 28 28 29 29 30 31 31 32 32 33 33 33 34 35 35 36 36 37 37 37
23 23 22 22 22 22 22 21 21 22 22 22 22 22 23 23 23 24 25 27 27 26 26 26 27 28 28 29 29 30 31 31 31 32 32 32 33 33 34 35 35 35 35
22 22 21 21 21 20 20 20 20 20 21 21 22 23 23 23 24 25 26 26 26 26 26 26 27 27 28 29 29 30 30 30 30 30 31 31 32 32 33 33 33 33 33
19 18 18 18 18 19 19 19 20 20 20 21 22 22 23 23 24 25 24 24 25 26 26 26 27 27 28 28 29 29 29 28 28 29 29 30 30 30 31 31 32 32 32
16 16 17 17 18 19 19 20 20 20 20 21 21 22 22 23 23 24 24 24 25 26 26 26 27 27 28 27 27 27 27 27 27 27 28 28 29 29 29 30 30 31 31
16 17 17 17 17 18 19 20 20 20 20 20 21 22 22 23 23 23 24 25 25 25 26 26 26 26 26 26 26 26 26 26 26 26 27 27 27 28 28 28 29 29 30
15 16 16 16 17 18 18 18 18 19 20 21 22 22 23 23 24 25 25 25 25 25 26 25 25 25 25 25 25 25 25 25 25 26 26 26 26 26 27 27 28 29 29
16 17 17 18 18 18 19 19 20 20 21 22 23 23 24 24 25 25 25 25 25 25 25 24 24 24 24 24 24 24 24 24 24 25 25 25 25 25 26 27 27 28 29
17 18 18 18 19 19 20 21 21 22 22 23 24 24 25 25 25 25 25 26 25 25 24 24 23 23 23 23 23 23 23 23 23 24 24 24 24 25 25 26 27 28 28
Wind_Direction
297 293 286 279 277 274 266 262 263 262 259 256 256 257 257 257 257 257 256 255 259 262 264 268 270 268 268 268 269 272 273 275 277 277 278 279 280 280 281 281 282 284 283
301 299 292 285 280 276 270 268 267 265 263 264 261 260 260 259 258 258 257 259 260 263 266 268 270 272 272 272 272 273 275 276 277 278 278 279 280 281 282 283 283 282 282
297 296 297 291 285 282 279 275 270 266 267 267 266 263 263 263 261 261 263 263 264 267 267 269 271 272 274 275 275 276 277 278 277 278 279 280 281 282 283 284 284 283 283
295 294 292 293 292 286 282 278 274 270 270 266 267 267 266 266 265 264 266 266 267 267 267 268 271 273 273 275 277 278 279 280 279 279 279 279 281 282 282 283 283 283 284
296 295 293 291 292 290 285 280 279 276 273 271 271 273 271 270 266 264 266 267 269 269 269 269 270 271 274 276 278 279 281 281 282 282 281 281 282 283 283 283 283 284 285
295 296 295 292 290 292 291 288 283 281 278 274 274 275 272 270 268 266 266 267 269 272 274 273 274 277 276 277 278 280 281 282 284 284 283 284 283 283 282 282 282 283 285
292 294 293 292 289 288 288 289 286 282 281 278 276 274 271 270 270 271 271 269 271 275 276 277 277 279 280 280 281 282 282 283 284 284 285 284 285 284 285 285 284 285 285
287 289 291 290 287 285 287 287 286 284 281 278 276 273 273 272 275 276 275 274 277 279 280 280 280 282 282 282 282 284 285 286 287 288 287 287 286 286 286 286 286 286 287
284 286 287 288 285 286 288 287 285 284 282 278 277 278 278 277 277 278 279 280 282 282 283 283 284 285 285 285 285 286 287 288 289 289 289 289 289 289 289 289 289 290 290
281 282 284 286 285 286 287 286 285 285 284 280 279 279 279 279 280 280 282 283 282 284 285 285 285 286 287 287 287 287 289 290 291 292 291 291 292 293 293 293 293 293 293
280 281 282 284 285 285 285 287 287 286 286 285 284 282 281 281 282 283 284 283 283 284 286 287 288 287 288 290 291 291 291 291 293 293 294 295 296 296 296 296 295 295 295
280 280 281 283 285 284 284 285 286 286 285 286 286 285 284 283 284 285 286 285 286 288 288 289 289 290 292 292 293 294 294 294 295 297 299 299 299 300 299 299 298 298 297
281 279 280 281 281 282 283 284 284 285 285 287 286 285 285 286 286 287 287 288 289 290 291 291 292 294 295 294 294 296 297 298 300 301 302 301 300 301 301 301 301 301 301
281 280 280 281 281 280 280 282 282 284 285 285 285 286 287 289 289 289 287 289 291 291 293 293 295 296 296 297 298 299 300 301 302 302 302 302 302 303 303 303 304 304 304
279 280 280 281 281 280 280 281 282 284 286 287 286 287 289 289 289 289 290 290 292 292 293 295 297 299 300 301 301 301 302 302 303 303 303 304 304 305 306 307 308 308 308
278 278 280 280 279 279 279 281 282 283 285 286 288 286 287 287 288 289 289 291 292 294 296 298 300 301 301 302 303 304 305 306 306 306 307 307 308 310 311 312 313 314 314
276 277 278 278 277 277 278 280 281 282 284 287 287 286 287 289 289 290 291 293 297 299 299 298 300 302 303 304 305 306 307 308 309 309 310 312 313 315 316 317 318 318 317
274 276 277 277 276 276 278 280 280 282 283 285 287 288 289 290 291 295 296 296 297 298 299 301 303 305 306 306 307 308 310 311 312 313 314 315 317 319 320 321 322 322 322
272 273 275 277 277 277 278 279 280 281 282 285 289 291 291 292 293 296 296 296 298 300 302 304 306 307 307 308 310 311 312 313 314 316 317 318 320 322 323 324 325 325 327
270 271 271 275 276 276 277 279 281 282 283 285 287 289 291 292 295 296 297 298 300 303 305 306 307 309 309 310 311 311 312 313 315 317 319 321 322 324 326 328 329 329 330
268 271 274 275 275 275 278 279 279 281 283 286 287 289 291 292 294 295 297 301 303 304 305 307 308 309 309 309 310 311 312 314 316 318 320 323 325 327 328 330 331 332 333
270 272 275 276 278 277 278 280 283 284 286 289 289 291 292 293 294 296 299 301 301 302 304 306 307 309 310 310 310 311 313 314 317 319 321 323 326 328 330 331 334 335 336
271 273 275 276 278 280 280 282 284 285 287 290 292 293 294 296 297 298 299 299 300 302 304 306 307 307 308 309 310 312 314 315 317 319 321 323 326 329 332 333 335 337 339
274 276 277 279 280 281 282 283 285 288 290 292 293 293 295 297 297 297 298 299 300 302 303 305 306 307 308 309 311 313 314 316 318 320 322 324 327 329 332 334 336 338 340
275 278 280 281 283 284 285 286 288 289 291 292 293 294 295 295 296 297 298 300 300 302 303 305 306 306 308 309 311 313 315 317 319 320 323 325 327 329 331 333 335 337 338
276 278 280 282 283 285 287 288 290 291 292 293 294 293 294 294 295 295 296 298 299 301 302 303 304 305 308 310 311 312 314 316 318 320 323 325 327 328 330 333 334 336 337
Height
5849 5849 5848 5848 5848 5848 5848 5849 5850 5850 5851 5852 5853 5853 5854 5855 5856 5857 5857 5859 5860 5861 5861 5862 5862 5863 5863 5863 5863 5863 5863 5863 5863 5862 5861 5860 5859 5859 5858 5857 5857 5856 5854
5848 5847 5846 5846 5845 5845 5845 5845 5846 5847 5847 5848 5849 5850 5850 5850 5851 5852 5853 5854 5855 5856 5856 5857 5857 5857 5858 5858 5858 5858 5857 5856 5856 5855 5854 5853 5852 5852 5850 5849 5849 5848 5846
5846 5845 5845 5844 5843 5843 5842 5842 5843 5843 5844 5844 5845 5846 5846 5846 5847 5848 5848 5849 5850 5851 5851 5852 5852 5852 5852 5852 5851 5851 5850 5850 5849 5848 5847 5846 5845 5844 5842 5841 5840 5838 5837
5844 5843 5843 5842 5841 5840 5840 5840 5840 5840 5841 5841 5842 5842 5842 5842 5843 5843 5844 5844 5845 5845 5845 5846 5846 5846 5846 5845 5845 5844 5844 5843 5842 5841 5840 5838 5837 5836 5834 5832 5831 5829 5827
5842 5841 5840 5839 5838 5838 5837 5837 5837 5837 5838 5838 5838 5838 5838 5838 5838 5839 5839 5840 5840 5840 5840 5840 5840 5840 5839 5839 5838 5837 5836 5835 5834 5833 5831 5830 5829 5827 5825 5823 5821 5819 5817
5839 5838 5837 5836 5835 5835 5834 5834 5834 5834 5834 5834 5834 5834 5834 5834 5834 5834 5835 5835 5835 5834 5834 5834 5833 5833 5832 5831 5831 5830 5829 5827 5826 5824 5823 5821 5819 5817 5815 5813 5811 5809 5806
5836 5835 5833 5833 5832 5832 5831 5831 5830 5830 5830 5829 5829 5830 5830 5830 5829 5829 5830 5829 5829 5829 5828 5828 5827 5826 5825 5824 5823 5821 5820 5819 5817 5816 5814 5812 5810 5807 5805 5802 5799 5797 5794
5832 5831 5830 5829 5828 5828 5828 5827 5826 5826 5825 5825 5825 5825 5825 5825 5825 5825 5824 5824 5823 5823 5822 5821 5820 5818 5817 5816 5815 5813 5812 5810 5808 5806 5804 5802 5799 5796 5794 5791 5788 5784 5781
5828 5827 5826 5825 5825 5824 5823 5822 5822 5821 5821 5820 5820 5820 5820 5820 5820 5819 5819 5818 5817 5816 5815 5814 5812 5811 5809 5808 5807 5805 5803 5801 5799 5796 5794 5791 5788 5785 5782 5779 5775 5771 5767
5823 5822 5821 5821 5820 5820 5819 5818 5817 5817 5816 5815 5815 5815 5814 5814 5813 5813 5812 5811 5810 5809 5808 5807 5805 5803 5801 5800 5798 5796 5794 5792 5789 5786 5783 5780 5776 5773 5769 5765 5761 5757 5753
5817 5817 5816 5815 5815 5814 5813 5813 5812 5812 5811 5810 5809 5809 5808 5808 5807 5806 5805 5805 5803 5802 5801 5799 5797 5796 5793 5791 5789 5787 5785 5782 5779 5776 5772 5768 5765 5761 5756 5752 5748 5743 5738
5811 5810 5810 5809 5809 5808 5808 5807 5807 5806 5805 5805 5803 5803 5802 5801 5800 5799 5798 5797 5796 5795 5793 5791 5789 5787 5785 5783 5780 5778 5775 5772 5768 5765 5761 5757 5753 5748 5744 5739 5734 5729 5723
5804 5804 5803 5803 5803 5802 5801 5801 5801 5800 5799 5798 5797 5796 5795 5795 5794 5793 5791 5790 5788 5787 5785 5783 5781 5779 5776 5774 5771 5768 5764 5761 5758 5754 5750 5745 5741 5736 5731 5726 5720 5714 5709
5797 5797 5797 5796 5796 5795 5795 5794 5794 5793 5792 5791 5790 5789 5788 5788 5786 5785 5784 5782 5781 5779 5777 5774 5772 5770 5767 5764 5761 5758 5754 5751 5747 5743 5738 5734 5729 5724 5719 5713 5708 5702 5696
5791 5790 5790 5789 5789 5788 5788 5788 5787 5786 5786 5785 5784 5783 5782 5780 5779 5778 5776 5775 5773 5771 5769 5766 5764 5761 5758 5755 5752 5748 5744 5740 5736 5732 5727 5723 5718 5713 5707 5701 5695 5689 5683
5784 5783 5783 5782 5782 5781 5781 5781 5780 5779 5779 5778 5777 5776 5774 5773 5772 5771 5769 5767 5765 5763 5761 5758 5756 5753 5750 5747 5743 5739 5735 5731 5727 5722 5718 5713 5708 5702 5697 5691 5685 5678 5672
5777 5777 5776 5776 5775 5775 5774 5774 5773 5773 5772 5771 5770 5769 5768 5766 5765 5764 5762 5760 5758 5756 5753 5751 5748 5745 5741 5738 5734 5730 5726 5722 5718 5713 5709 5704 5699 5693 5687 5681 5675 5668 5662
5770 5770 5770 5769 5769 5768 5768 5767 5767 5766 5765 5764 5764 5762 5761 5760 5758 5757 5755 5753 5751 5748 5746 5743 5740 5737 5733 5730 5726 5722 5718 5714 5710 5705 5700 5695 5690 5685 5679 5673 5666 5660 5653
5763 5763 5763 5763 5762 5762 5762 5761 5761 5760 5759 5758 5757 5756 5755 5753 5751 5750 5748 5746 5743 5741 5738 5735 5732 5729 5725 5722 5718 5714 5710 5706 5702 5698 5693 5688 5683 5677 5671 5665 5659 5653 5646
5757 5757 5757 5757 5756 5756 5756 5755 5755 5754 5753 5752 5751 5750 5748 5747 5745 5743 5741 5739 5736 5734 5731 5728 5725 5722 5718 5714 5711 5707 5703 5699 5695 5690 5686 5681 5676 5670 5665 5659 5652 5646 5640
5751 5750 5750 5751 5750 5750 5750 5749 5749 5748 5747 5746 5745 5743 5742 5740 5738 5736 5734 5732 5729 5727 5724 5721 5718 5714 5711 5707 5704 5700 5696 5692 5688 5684 5679 5674 5669 5664 5658 5653 5647 5641 5634
5745 5745 5745 5745 5745 5744 5744 5744 5743 5742 5741 5740 5738 5737 5735 5734 5732 5730 5727 5725 5722 5719 5716 5713 5711 5707 5704 5700 5697 5693 5689 5686 5682 5677 5673 5668 5664 5658 5653 5647 5642 5636 5629
5740 5740 5740 5740 5739 5739 5738 5738 5737 5736 5735 5734 5732 5731 5729 5727 5725 5723 5721 5718 5715 5712 5709 5706 5703 5700 5697 5694 5690 5687 5683 5679 5675 5671 5667 5663 5658 5653 5648 5643 5637 5631 5626
5735 5735 5735 5735 5734 5734 5733 5732 5731 5730 5729 5728 5726 5724 5723 5721 5718 5716 5713 5711 5708 5705 5702 5699 5696 5693 5690 5687 5684 5680 5677 5673 5670 5666 5661 5657 5653 5648 5643 5638 5633 5628 5622
5731 5731 5730 5730 5729 5728 5727 5727 5725 5724 5723 5721 5720 5718 5716 5713 5711 5709 5706 5703 5701 5698 5695 5693 5690 5687 5684 5681 5678 5675 5671 5668 5664 5660 5656 5652 5648 5643 5639 5634 5629 5624 5618
5726 5725 5725 5724 5723 5722 5721 5720 5719 5717 5716 5714 5712 5710 5708 5706 5704 5701 5699 5696 5694 5691 5688 5686 5683 5681 5678 5675 5672 5669 5666 5662 5659 5655 5651 5647 5643 5639 5634 5630 5625 5620 5614